Regional Weather Roundup
Issued by NWS Midland/Odessa, TX

Home | Current Version | Previous Version | Text Only | Print | Product List | Glossary On
Versions: 1 2 3 4 5 6 7 8 9 10 11 12 13 14 15 16 17 18 19 20 21 22 23 24 25 26 27 28 29 30 31 32 33 34 35 36 37 38 39 40 41 42 43 44 45 46 47 48 49 50
000
ASUS44 KMAF 160510
RWRMAF
MIDLAND AREA WEATHER ROUNDUP
NATIONAL WEATHER SERVICE MIDLAND TX
1200 AM CDT WED APR 16 2014

...IN SOUTHWEST TEXAS AND SOUTHEAST NEW MEXICO...

CITY           SKY/WX    TMP DP  RH WIND       PRES   REMARKS
ALPINE         CLEAR     49  11  21 SW6       30.07S
ANDREWS        FAIR      52   8  16 S13       29.98F
ARTESIA        MOCLDY    50   7  17 S10       29.93S
BIG SPRING     PTCLDY    54  11  18 S16       30.02S
CARLSBAD       PTCLDY    55   2  11 S9        29.93F
DRYDEN           N/A     54  14  20 E7        30.02F
FORT STOCKTON  PTCLDY    54  13  19 SE22G29   29.99F
GUAD PASS      MOCLDY    55  -2   9 SW10      30.02F
HOBBS          MOCLDY    52   3  14 S17       29.96F
MARFA          CLEAR     41   3  20 W3        30.05F
MIDLAND AIRPK  PTCLDY    55   8  15 S15       30.00F
MIDLAND INTL   PTCLDY    53   9  17 S14       30.00S
ODESSA         PTCLDY    55   6  14 S20       30.00F
PECOS          PTCLDY    55  13  19 E12       29.95S
PRESIDIO       FAIR      63  13  14 NE13      29.95S
SEMINOLE       MOCLDY    51   6  16 S15       29.98F
SNYDER         PTCLDY    55   9  16 SE15      29.99F
WINK           PTCLDY    55   8  15 SE14      29.96F
$$
...OTHER STATIONS IN TEXAS...

CITY           SKY/WX    TMP DP  RH WIND       PRES   REMARKS
ABILENE        CLEAR     51  18  27 S16       30.03F
AMARILLO       CLOUDY    53   8  16 S23G32    29.87F
AUSTIN         CLEAR     38  35  89 CALM      30.15F
BROWNSVILLE    CLEAR     50  41  71 E6        30.19F
CORPUS CHRISTI CLEAR     56  37  49 SE12      30.17F
DALLAS FTW     CLEAR     48  31  51 S8        30.11F
DEL RIO        CLEAR     57  18  21 SE9       30.08S
EL PASO        PTCLDY    62   1   8 CALM      29.93F
HOUSTON INT    CLEAR     47  36  65 CALM      30.17S
LUBBOCK        CLOUDY    54   8  16 S17       29.93F
SAN ANGELO     CLEAR     43  14  31 S7        30.04F WCI  39
SAN ANTONIO    CLEAR     50  28  42 E3        30.15S
WACO           CLEAR     48  32  53 SE8       30.14F
WICHITA FALLS  NOT AVBL
$$
...OTHER LOCATIONS IN NEW MEXICO...

CITY           SKY/WX    TMP DP  RH WIND       PRES   REMARKS
ALAMAGORDO     MOCLDY    59   5  11 S10       29.94F
ALBUQUERQUE    PTCLDY    57   8  14 S17       29.92S
CANNON AFB     CLOUDY    53   4  13 SW16      29.90F
CLOVIS         CLOUDY    52   7  16 S14       29.92F
HOLLOMAN AFB   CLOUDY    60   6  11 SE10      29.93F
ROSWELL        MOCLDY    56   5  13 S16       29.90F
RUIDOSO        PTCLDY    50   5  16 SW18      30.03S
SANTA FE       CLEAR     46   9  22 W10       29.94F
TRUTH OR CONSE CLEAR     56   9  15 S6        29.94F
TUCUMCARI      CLOUDY    58   8  13 SW24G32   29.83S
$$



USA.gov is the U.S. government's official web portal to all federal, state and local government web resources and services.